Weather Roundup
Issued by NWS Springfield, MO

Home | Current Version | Previous Version | Text Only | Print | Product List | Glossary On
Versions: 1 2 3 4 5 6 7 8 9 10 11 12 13 14 15 16 17 18 19 20 21 22 23 24 25 26 27 28 29 30 31 32 33 34 35 36 37 38 39 40 41 42 43 44 45 46 47 48 49 50
000
NZUS99 KSGF 292207
HRRSGF

HOURLY WEATHER
NATIONAL WEATHER SERVICE SPRINGFIELD MO
500 PM CDT WED JUL 29 2015

......SGF CWA......

CITY           SKY/WX    TMP DP  RH WIND       PRES   REMARKS
SPRINGFIELD    SUNNY     87  72  60 N16       30.08S HX  93
JOPLIN         PTSUNNY   87  75  67 NE7G18    30.07R HX  96
WEST PLAINS    PTSUNNY   90  75  61 N10       30.06S HX 100
ROLLA          PTSUNNY   86  70  58 N13       30.08S HX  90
OSAGE BEACH    SUNNY     86  70  58 N8        30.10S HX  90
BRANSON        MOSUNNY   91  72  52 NW6       30.07F HX  98

......SURROUNDING SGF CWA......

CITY           SKY/WX    TMP DP  RH WIND       PRES   REMARKS
CHANUTE        MOSUNNY   89  71  55 NE13      30.09S HX  95
PARSONS        SUNNY     91  75  59 NE9G18    30.07S HX 101
COFFEYVILLE    PTSUNNY   93  72  50 N3        30.03F HX 101
EMPORIA        CLOUDY    83  69  62 NE15      30.13S
GROVE OK       SUNNY     97  68  38 NW5       30.05S HX 101
ROGERS AR      SUNNY     94  70  45 W3        30.07F HX 100
SILOAM SPRINGS MOSUNNY   93  70  46 CALM      30.05F HX  99
HARRISON AR    SUNNY     93  70  46 N6        30.06F HX  99
NEAR YELLVILLE MOSUNNY   95  70  43 W7        30.01S HX 101

......KANSAS AND MISSOURI......

CITY           SKY/WX    TMP DP  RH WIND       PRES   REMARKS
KANSAS CTY INT PTSUNNY   82  65  56 NE9       30.14R
DOWNTOWN KC    PTSUNNY   86  64  47 NE10      30.11S
COLUMBIA       SUNNY     85  64  49 N12       30.11S
SEDALIA        SUNNY     86  63  45 NE9       30.13S
ST JOSEPH      CLOUDY    84  63  49 N3        30.14R
ST LOUIS       MOSUNNY   89  71  55 N13       30.04F HX  95
SPIRIT OF STL  PTSUNNY   88  73  61 NW9       30.03F HX  95
KIRKSVILLE     SUNNY     83  58  42 N8        30.13F
WICHITA        TSTM      78  71  79 N10       30.16R
TOPEKA         PTSUNNY   83  70  64 N6        30.14S
OLATHE         MOSUNNY   84  65  52 NE7       30.13S

......TENNESSEE......

CITY           SKY/WX    TMP DP  RH WIND       PRES   REMARKS
MEMPHIS        PTSUNNY   98  74  45 W8        29.97S HX 109
NASHVILLE      PTSUNNY   93  76  57 NW8       29.97S HX 105

......ARKANSAS.......

CITY           SKY/WX    TMP DP  RH WIND       PRES   REMARKS
FAYETTEVILLE   SUNNY     92  71  50 W6        30.06F HX  98
FT SMITH       SUNNY     96  67  38 NE9       29.99F HX 100
LITTLE ROCK    MOSUNNY   98  69  38 SE5       29.96F HX 104

......OKLAHOMA.......

CITY           SKY/WX    TMP DP  RH WIND       PRES   REMARKS
TULSA          MOSUNNY   97  72  44 S10       30.01F HX 105
PONCA CITY     SUNNY     95  70  44 E8        30.04S HX 101
MCALESTER      PTSUNNY   98  69  38 VRB3      30.01F HX 104
OKLAHOMA CITY  MOSUNNY   95  69  42 S10G17    30.03F HX 100

......IOWA............

CITY           SKY/WX    TMP DP  RH WIND       PRES   REMARKS
DES MOINES     MOSUNNY   85  54  34 W8        30.10F
QUAD CITIES    SUNNY     84  56  38 W15       30.04F

......ILLINOIS........

CITY           SKY/WX    TMP DP  RH WIND       PRES   REMARKS
QUINCY         SUNNY     83  57  41 NW12      30.09S
CHICAGO        MOSUNNY   85  52  32 W15       29.96S




USA.gov is the U.S. government's official web portal to all federal, state and local government web resources and services.